Regional Weather Roundup
Issued by NWS

Home | Current Version | Previous Version | Graphics & Text | Print | Product List | Glossary On
Versions: 1 2 3 4 5 6 7 8 9 10 11 12 13 14 15 16 17 18 19 20 21 22 23 24 25 26 27 28 29 30 31 32 33 34 35 36 37 38 39 40 41 42 43 44 45 46 47 48 49 50
000
ASUS43 KLSX 170357
RWRMO

WEATHER SUMMARY FOR MISSOURI
NATIONAL WEATHER SERVICE SPRINGFIELD MO
1000 PM CST MON JAN 16 2017

NOTE: "FAIR" INDICATES FEW OR NO CLOUDS BELOW 12,000 FEET WITH NO
       SIGNIFICANT WEATHER AND/OR OBSTRUCTIONS TO VISIBILITY.
       CURRENT SKY AND/OR WEATHER CONDITIONS ARE NOT AVAILABLE FOR
       CHILLICOTHE AND FARMINGTON.

MOZ001>031-035>038-043-044-053-054-170500-
...NORTHERN AND WESTERN MISSOURI...

CITY           SKY/WX    TMP DP  RH WIND       PRES   REMARKS
KANSAS CTY INT CLOUDY    39  38  96 W9        29.92R
LEE`S SUMMIT   CLOUDY    40  32  73 W13G23    29.92S
ST JOSEPH      CLOUDY    35  35 100 NW9       29.93R WCI  28
CHILLICOTHE      N/A     43  41  93 VRB5      29.89S

$$
MOZ066>068-077>081-088>096-101>105-170500-
...SOUTHWEST MISSOURI...

CITY           SKY/WX    TMP DP  RH WIND       PRES   REMARKS
SPRINGFIELD    CLOUDY    43  35  73 W14       29.97S
JOPLIN         CLOUDY    43  36  76 MISG      30.00R

$$
MOZ032>034-039>042-045>050-055>058-069>072-170500-
...CENTRAL MISSOURI...

CITY           SKY/WX    TMP DP  RH WIND       PRES   REMARKS
COLUMBIA       NOT AVBL
JEFFERSON CITY CLOUDY    50  43  77 W18G29    29.91R
ROLLA          LGT RAIN  50  48  93 W14       29.89R
SEDALIA        CLOUDY    43  37  79 SW14G23   29.93R
WARRENSBURG    CLOUDY    41  36  81 SW12      29.93R

$$
MOZ051-052-059>065-170500-
...EAST CENTRAL MISSOURI...

CITY           SKY/WX    TMP DP  RH WIND       PRES   REMARKS
ST LOUIS INTL  MOCLDY    58  55  90 S12       29.83F
SPIRIT OF STL  CLOUDY    56  56 100 S9        29.83F

$$
MOZ072>076-082>087-097>100-106>115-170500-
...SOUTH CENTRAL AND SOUTHEAST MISSOURI...

CITY           SKY/WX    TMP DP  RH WIND       PRES   REMARKS
CAPE GIRARDEAU CLOUDY    61  56  83 S15       29.92S
POPLAR BLUFF   CLOUDY    61  60  97 S6        29.92S
WEST PLAINS    CLEAR     56  51  84 W12G21    29.93S

$$



USA.gov is the U.S. government's official web portal to all federal, state and local government web resources and services.